User: anonymous
Location: Spradlin Observatory
(33.4706°N, 86.3221°W)
Time: 18:57:17
(UTC-05:00)
Language:

COSMOS 2406 - Orbit

View from above orbital plane
View from above orbital plane
View from above satellite
View from above satellite

Ground track
Ground track

The orbit data is extracted from the following two-line orbital elements,

1 28352U 04021A   14108.24197994  .00000404  00000-0  24944-3 0  2746
2 28352 071.0058 017.6785 0013258 036.4357 124.0411 14.11333964507745
Epoch (UTC): 18 April 2014 05:48:27
Eccentricity: 0.0013258
inclination: 71.0058°
perigee height: 845 km
apogee height: 864 km
right ascension of ascending node: 17.6785°
argument of perigee: 36.4357°
revolutions per day: 14.11333964
mean anomaly at epoch: 124.0411°
orbit number at epoch: 50774

The dashed part of the orbit path shows where the satellite is in the earth's shadow,  

DLR